Probability
0 0 0 0 0 0 0 0 0 0 0 0 0 0 0 0 0 0 0 0 0 0 0 0 0 0 0 0 0 0 0 0 0 0 0 0 0 0 0 0 0 0 0
0 0 0 0 0 0 0 0 0 0 0 0 0 0 0 0 0 0 0 0 0 0 0 0 0 0 0 0 0 0 0 0 0 0 0 0 0 0 0 0 0 0 0
0 0 0 0 0 0 0 0 0 0 0 0 0 0 0 0 0 0 0 0 0 0 0 0 0 0 0 0 0 0 0 0 0 0 0 0 0 0 0 0 0 0 0
0 0 0 0 0 0 0 0 0 0 0 0 0 0 0 0 0 0 0 0 0 0 0 0 0 0 0 0 0 0 0 0 0 0 0 0 0 0 0 0 0 0 0
0 0 0 0 0 0 0 0 0 0 0 0 0 0 0 0 0 0 0 0 0 0 0 0 0 0 0 0 0 0 0 0 0 0 0 0 0 0 0 0 0 0 0
0 0 0 0 0 0 0 0 0 0 0 0 0 0 0 0 0 0 0 0 0 0 0 0 0 0 0 0 0 0 0 0 0 0 0 0 0 0 0 0 0 0 0
0 0 0 0 0 0 0 0 0 0 0 0 0 0 0 0 0 0 0 0 0 0 0 0 0 0 0 0 0 0 0 0 0 0 0 0 0 0 0 0 0 0 0
0 0 0 0 0 0 0 0 0 0 0 0 0 0 0 0 0 0 0 0 0 0 0 0 0 0 0 0 0 0 0 0 0 0 0 0 0 0 0 0 0 0 0
0 0 0 0 0 0 0 0 0 0 0 0 0 0 0 0 0 0 0 0 0 0 0 0 0 0 0 0 0 0 0 0 0 0 0 0 0 0 0 0 0 0 0
0 0 0 0 0 0 0 0 0 0 0 0 0 0 0 0 0 0 0 0 0 0 0 0 0 0 0 0 0 0 0 0 0 0 0 0 0 0 0 0 0 0 0
0 0 0 0 0 0 0 0 0 0 0 0 0 0 0 0 0 0 0 0 0 0 0 0 0 0 0 0 0 0 0 0 0 0 0 0 0 0 0 0 0 0 0
0 0 0 0 0 0 0 0 0 0 0 0 0 0 0 0 0 0 0 0 0 0 0 0 0 0 0 0 0 0 0 0 0 0 0 0 0 0 0 0 0 0 0
0 0 0 0 0 0 0 0 0 0 0 0 0 0 0 0 0 0 0 0 0 0 0 0 0 0 0 0 0 0 0 0 0 0 0 0 0 0 0 0 0 0 0
0 0 0 0 0 0 0 0 0 0 0 0 0 0 0 0 0 0 0 0 0 0 0 0 0 0 0 0 0 0 0 0 0 0 0 0 0 0 0 0 0 0 0
0 0 0 0 0 0 0 0 0 0 0 0 0 0 0 0 0 0 0 0 0 0 0 0 0 0 0 0 0 0 0 0 0 0 0 0 0 0 0 0 0 0 0
0 0 0 0 0 0 0 0 0 0 0 0 0 0 0 0 0 0 0 0 0 0 0 0 0 0 0 0 0 0 0 0 0 0 0 0 0 0 0 0 0 0 0
0 0 0 0 0 0 0 0 0 0 0 0 0 0 0 0 0 0 0 0 0 0 0 0 0 0 0 0 0 0 0 0 0 0 0 0 0 0 0 0 0 0 0
0 0 0 0 0 0 0 0 0 0 0 0 0 0 0 0 0 0 0 0 0 0 0 0 0 0 0 0 0 0 0 0 0 0 0 0 0 0 0 0 0 0 0
0 0 0 0 0 0 0 0 0 0 0 0 0 0 0 0 0 0 0 0 0 0 0 0 0 0 0 0 0 0 0 0 0 0 0 0 0 0 0 0 0 0 0
0 0 0 0 0 0 0 0 0 0 0 0 0 0 0 0 0 0 0 0 0 0 0 0 0 0 0 0 0 0 0 0 0 0 0 0 0 0 0 0 0 0 0
0 0 0 0 0 0 0 0 0 0 0 0 0 0 0 0 0 0 0 0 0 0 0 0 0 0 0 0 0 0 0 0 0 0 0 0 0 0 0 0 0 0 0
0 0 0 0 0 0 0 0 0 0 0 0 0 0 0 0 0 0 0 0 0 0 0 0 0 0 0 0 0 0 0 0 0 0 0 0 0 0 0 0 0 0 0
0 0 0 0 0 0 0 0 0 0 0 0 0 0 0 0 0 0 0 0 0 0 0 0 0 0 0 0 0 0 0 0 0 0 0 0 0 0 0 0 0 0 0
0 0 0 0 0 0 0 0 0 0 0 0 0 0 0 0 0 0 0 0 0 0 0 0 0 0 0 0 0 0 0 0 0 0 0 0 0 0 0 0 0 0 0
0 0 0 0 0 0 0 0 0 0 0 0 0 0 0 0 0 0 0 0 0 0 0 0 0 0 0 0 0 0 0 0 0 0 0 0 0 0 0 0 0 0 0
0 0 0 0 0 0 0 0 0 0 0 0 0 0 0 0 0 0 0 0 0 0 0 0 0 0 0 0 0 0 0 0 0 0 0 0 0 0 0 0 0 0 0
Wind_Speed
10 8 9 9 9 10 11 12 12 12 10 8 7 7 6 5 5 6 7 8 7 7 6 4 4 4 3 3 3 2 1 0 1 2 4 4 3 2 1 2 1 2 2
5 6 7 8 10 11 12 12 13 13 12 9 8 5 5 4 5 5 6 8 8 7 6 6 5 5 3 3 3 2 2 0 1 1 1 4 5 4 3 2 1 2 2
8 7 8 9 9 11 13 12 13 13 12 10 6 4 3 2 3 4 5 6 8 8 7 7 6 5 5 4 4 4 4 2 1 1 3 1 3 4 4 3 2 2 2
6 7 8 9 10 11 10 11 12 11 11 11 10 10 8 7 7 5 5 6 7 8 8 7 7 6 5 5 5 4 3 4 2 1 1 3 3 2 4 4 3 3 3
6 7 9 10 9 9 9 9 10 10 10 11 12 11 9 7 4 4 6 6 6 7 7 7 6 6 5 5 5 4 4 4 4 3 2 2 2 3 3 5 5 4 4
5 5 5 6 6 6 7 8 9 10 10 11 11 12 11 9 7 7 7 6 4 5 7 7 6 6 5 6 6 5 6 4 4 3 3 3 3 3 4 5 6 6 4
5 5 6 7 7 8 8 8 10 10 10 11 11 12 11 11 11 10 9 7 5 5 7 7 6 6 6 6 5 5 5 5 5 5 4 4 4 3 3 4 5 6 4
5 6 7 8 8 9 9 9 10 10 10 11 11 10 10 8 8 9 8 9 8 7 7 8 8 7 7 6 5 4 5 5 5 6 5 4 5 4 4 4 3 6 5
7 7 7 7 8 9 10 11 11 9 10 10 9 9 9 9 8 8 8 7 6 6 7 8 8 7 7 7 6 5 5 5 5 6 6 5 4 4 4 4 4 4 7
6 7 6 7 7 8 8 8 9 10 9 9 9 8 9 9 8 7 8 8 7 7 7 8 7 7 7 6 6 5 5 5 5 4 5 6 4 4 4 4 4 5 6
7 7 6 6 6 5 6 7 7 7 7 8 8 7 7 7 7 7 8 8 7 7 8 8 8 7 7 7 6 6 6 6 6 5 6 7 6 5 4 4 4 5 5
6 5 5 4 4 5 5 6 6 7 7 7 7 7 6 6 7 7 7 7 7 7 8 8 7 7 7 7 8 8 7 7 7 7 7 8 5 6 5 5 6 6 6
5 4 4 4 5 5 5 5 6 6 6 6 6 6 6 6 7 7 6 6 7 7 7 7 8 7 7 7 7 7 7 7 8 7 7 8 6 7 6 6 6 6 7
6 6 5 5 5 5 5 5 5 5 5 5 6 6 7 7 7 6 6 6 6 6 7 7 7 7 7 7 6 6 6 7 7 7 7 7 7 8 8 7 7 7 7
6 7 7 6 5 5 4 5 4 4 5 5 6 6 5 5 5 5 5 5 5 6 6 6 5 5 5 6 6 6 7 7 7 7 7 8 10 13 11 8 7 6 6
8 7 6 6 6 6 5 5 4 4 5 5 5 4 4 4 4 4 4 4 4 4 4 5 5 5 5 8 10 8 6 6 7 7 7 8 10 13 18 19 18 14 9
8 8 7 7 7 7 6 6 5 4 4 4 4 4 4 4 4 4 4 4 4 4 4 5 5 6 7 10 11 11 6 6 6 7 6 7 8 12 7 13 18 16 19
8 7 7 6 5 5 4 4 4 4 4 4 3 3 4 4 3 3 4 4 3 4 4 5 5 5 6 10 11 11 7 5 6 7 7 7 7 8 9 8 8 9 10
7 7 6 5 5 5 5 5 4 4 4 4 4 4 4 4 3 4 4 3 3 3 4 4 5 5 6 10 11 11 4 5 6 7 7 7 7 13 17 11 9 9 9
5 5 4 4 4 4 5 5 4 4 5 5 4 3 4 4 4 4 3 2 2 3 3 3 4 5 5 9 11 10 3 4 5 5 6 11 12 16 18 10 8 10 9
4 5 5 4 5 5 6 5 5 5 4 3 3 3 3 3 3 2 2 2 2 2 2 3 3 4 6 8 10 11 5 5 5 5 4 6 15 17 18 16 8 13 14
4 5 5 4 3 4 6 5 5 4 3 3 3 2 2 2 2 2 1 1 2 2 2 3 4 3 4 6 9 12 12 11 6 5 4 6 15 17 18 14 14 20 17
5 4 5 4 3 3 5 5 4 3 4 3 3 2 2 1 2 2 2 1 1 2 2 3 4 4 3 5 11 13 14 14 8 6 11 14 17 16 11 13 18 14 6
5 4 5 5 3 3 3 4 3 4 4 4 3 2 2 1 1 1 2 2 2 2 3 3 4 4 4 4 4 5 6 10 9 7 10 15 15 11 11 11 8 5 5
4 5 5 5 4 3 3 3 4 5 4 3 2 2 2 2 1 1 2 2 3 4 4 4 4 4 5 7 11 8 5 4 6 6 4 3 3 4 4 5 5 4 5
5 5 5 5 4 4 3 3 3 5 5 3 2 2 1 1 1 1 2 4 5 8 9 9 8 7 10 14 15 15 15 15 15 9 3 4 4 5 5 5 5 5 5
Wind_Direction
237 220 205 192 183 183 182 182 181 180 173 173 175 176 185 187 187 191 188 184 182 179 176 175 176 171 174 182 173 155 154 286 354 9 336 326 329 344 340 348 355 356 3
238 216 200 188 186 186 186 185 185 183 182 183 180 177 171 181 189 190 192 190 185 183 182 180 181 177 173 174 174 158 152 201 87 107 21 342 337 334 337 330 325 328 349
221 210 197 193 189 190 190 189 188 185 185 177 159 140 131 138 179 198 198 197 190 188 185 185 181 180 176 184 190 177 168 187 217 163 154 162 262 302 309 302 302 311 320
220 207 198 195 197 198 192 190 187 185 182 174 173 173 181 191 197 191 193 196 195 192 189 186 185 186 184 188 194 185 175 166 196 220 207 195 183 212 301 305 297 297 291
216 207 203 201 201 194 189 189 185 187 183 182 184 187 194 196 180 178 188 197 199 197 193 188 187 189 190 192 190 184 185 181 184 190 193 209 217 201 218 278 296 297 271
214 210 204 195 196 189 186 184 185 191 187 187 189 193 195 187 179 187 194 199 201 203 201 192 191 192 192 195 197 193 192 196 194 195 190 187 197 209 209 248 275 283 276
205 204 194 196 198 193 191 187 188 195 193 193 196 198 198 193 196 195 198 198 199 206 207 198 195 196 199 198 192 192 200 196 197 203 208 209 216 207 208 239 271 279 282
214 214 209 204 203 201 196 193 195 200 197 199 202 201 198 198 203 201 200 203 206 208 201 199 201 201 198 197 192 196 204 201 207 215 213 218 226 215 211 218 255 290 288
223 223 221 213 208 205 203 199 199 202 201 202 201 201 200 201 204 202 202 205 207 203 198 200 202 202 199 197 191 204 210 205 213 219 221 226 230 223 224 222 215 241 285
230 229 224 219 216 212 208 202 202 205 204 201 202 204 204 205 204 199 205 206 205 200 195 200 203 204 203 200 197 207 211 210 221 220 225 234 235 234 229 228 230 225 248
225 225 224 221 215 208 202 203 206 206 205 203 203 204 204 202 201 204 208 205 202 198 199 201 202 204 205 202 203 212 210 217 229 231 231 240 238 239 240 236 237 239 239
225 225 221 214 208 207 205 204 205 206 208 202 199 204 203 197 200 208 207 200 200 199 200 198 202 207 207 204 206 215 216 220 230 236 238 246 246 245 245 242 245 248 243
229 223 217 214 214 212 209 208 207 208 205 196 198 203 202 201 206 208 203 198 199 199 198 196 203 207 208 208 212 215 220 225 231 234 237 245 244 252 250 247 250 254 259
224 217 219 222 221 215 210 209 214 205 196 191 196 205 207 205 207 205 200 198 197 197 199 202 205 207 208 212 215 216 222 230 235 235 236 241 240 248 252 254 253 255 260
228 221 219 221 220 218 215 209 209 200 187 187 198 210 209 203 199 198 198 195 195 199 197 199 206 209 211 217 216 219 225 231 239 243 243 245 252 257 262 266 259 253 259
229 226 221 215 214 212 209 204 205 199 181 189 203 203 192 191 194 196 191 189 194 195 193 202 208 214 226 238 239 240 231 231 236 246 251 255 263 269 275 280 282 279 276
224 219 214 211 210 207 198 197 197 181 176 189 196 193 188 192 196 189 184 193 198 198 206 214 216 226 239 249 253 255 251 237 238 245 253 262 264 275 269 278 283 284 283
217 215 208 206 207 197 187 179 170 169 175 184 192 191 184 189 186 180 194 202 198 203 213 221 225 232 247 257 263 265 259 247 247 247 247 252 259 264 274 265 265 262 267
207 203 198 194 186 186 176 160 165 168 175 190 196 192 183 182 182 193 205 206 201 216 220 223 227 234 253 262 268 272 257 252 255 253 250 256 257 273 285 284 275 274 271
188 185 176 166 175 185 160 158 173 177 196 199 194 185 179 181 191 201 205 205 206 223 229 240 237 238 250 265 273 278 261 258 261 258 255 267 275 282 288 283 275 278 278
184 170 163 171 188 173 156 167 179 200 202 177 164 164 171 180 187 186 191 197 212 227 242 252 257 251 257 272 278 283 276 256 259 259 255 258 282 289 291 291 282 284 292
179 169 162 174 180 163 157 169 196 199 156 144 147 155 162 166 154 160 188 195 199 230 253 261 272 264 264 273 279 283 285 286 273 265 258 263 284 289 292 295 294 298 304
181 170 163 163 174 170 162 174 194 158 141 139 150 154 148 149 157 170 192 213 213 232 257 258 268 273 264 269 282 286 289 291 289 274 281 288 293 297 297 296 299 304 302
179 166 157 163 181 178 164 171 164 146 139 145 152 149 147 158 178 192 196 209 225 240 256 262 268 274 274 266 265 266 276 284 287 285 287 295 299 299 297 298 299 289 274
174 166 168 172 177 163 153 153 149 139 137 143 150 154 164 179 208 236 231 234 230 236 253 250 248 261 270 271 284 288 273 264 263 284 277 275 283 280 278 279 275 271 280
166 163 165 163 164 156 151 151 148 143 143 150 163 173 182 193 210 254 299 289 282 288 289 286 283 278 283 294 298 301 302 303 302 304 289 279 273 274 277 280 281 276 276